This is the latest recevied weather packets stored in our database for station/object KK7ISX. If no packets are shown the sender has not sent any weather packets the latest 1 day(s).
| Time | Temp. | Humidity | Pressure | Rain* | Wind** | Luminosity | Snow |
|---|---|---|---|---|---|---|---|
| 1778077069 | 11.11° C | 46% | 1020 hPa | 0 mm | - | 137 W/m² | - |
| 1778076767 | 11.11° C | 47% | 1019.8 hPa | 0 mm | - | 53 W/m² | - |
| 1778076161 | 10.56° C | 48% | 1019.9 hPa | 0 mm | - | 115 W/m² | - |
| 1778075858 | 10.56° C | 49% | 1020 hPa | 0 mm | - | 103 W/m² | - |
| 1778075554 | 10° C | 49% | 1019.8 hPa | 0 mm | - | 65 W/m² | - |
| 1778073129 | 8.89° C | 50% | 1019.4 hPa | 0 mm | - | 32 W/m² | - |
| 1778072826 | 8.89° C | 50% | 1019 hPa | 0 mm | - | 27 W/m² | - |
| 1778071919 | 8.33° C | 51% | 1019.2 hPa | 0 mm | - | 15 W/m² | - |
| 1778069196 | 8.89° C | 51% | 1018.9 hPa | 0 mm | - | 0 W/m² | - |
| 1778067986 | 9.44° C | 50% | 1018.6 hPa | 0 mm | - | 0 W/m² | - |
| 1778067684 | 9.44° C | 49% | 1018.2 hPa | 0 mm | - | 0 W/m² | - |
| 1778067079 | 9.44° C | 49% | 1018.4 hPa | 0 mm | - | 0 W/m² | - |
| 1778064959 | 10° C | 48% | 1018.3 hPa | 0 mm | - | 0 W/m² | - |
| 1778064656 | 10° C | 47% | 1018.3 hPa | 0 mm | - | 0 W/m² | - |
| 1778063445 | 9.44° C | 48% | 1017.8 hPa | 0 mm | - | 0 W/m² | - |
| 1778062537 | 10° C | 49% | 1017.5 hPa | 0 mm | - | 0 W/m² | - |
| 1778061329 | 10.56° C | 47% | 1017.4 hPa | 0 mm | - | 0 W/m² | - |
| 1778060723 | 10.56° C | 47% | 1017.1 hPa | 0 mm | - | 0 W/m² | - |
| 1778057696 | 12.22° C | 44% | 1016.2 hPa | 0 mm | - | 0 W/m² | - |
| 1778056483 | 12.78° C | 54% | 1015.8 hPa | 0 mm | - | 0 W/m² | - |
| 1778056180 | 12.78° C | 58% | 1015.1 hPa | 0 mm | - | 0 W/m² | - |
| 1778055877 | 12.78° C | 56% | 1014.7 hPa | 0 mm | - | 0 W/m² | - |
| 1778054968 | 13.89° C | 53% | 1014.4 hPa | 0 mm | - | 0 W/m² | - |
| 1778054665 | 13.89° C | 52% | 1013.9 hPa | 0 mm | - | 0 W/m² | - |
| 1778054060 | 13.89° C | 52% | 1013.9 hPa | 0 mm | - | 0 W/m² | - |
* Rain latest hour (hover to see other rain measurements)
** Current wind speed in m/s (hover to see current wind gust speed)